Hourly Weather 1-e Yuldybaevo

Today, 21 October, Wednesday

Time Temperature Precipitation Wind Pressure Humidity
00:00 +4°C° 0 mm 1 mps 737 mmHg 83%
01:00 +4°C° 0 mm 1 mps 736 mmHg 80%
02:00 +3°C° 0 mm 1 mps 736 mmHg 82%
03:00 +3°C° 0 mm 1 mps 736 mmHg 84%
04:00 +2°C° 0 mm 1 mps 736 mmHg 86%
05:00 +2°C° 0 mm 1 mps 736 mmHg 86%
06:00 +2°C° 0 mm 1 mps 736 mmHg 86%
07:00 +1°C° 0 mm 1 mps 736 mmHg 86%
08:00 +2°C° 0 mm 2 mps 736 mmHg 77%
09:00 +2°C° 0 mm 3 mps 736 mmHg 69%
10:00 +3°C° 0 mm 4 mps 736 mmHg 61%
11:00 +4°C° 0.1 mm 4 mps 736 mmHg 60%
12:00 +3°C° 0.1 mm 5 mps 735 mmHg 59%
13:00 +4°C° 0.1 mm 6 mps 735 mmHg 58%
14:00 +3°C° 0.1 mm 6 mps 736 mmHg 61%
15:00 +3°C° 0.1 mm 5 mps 736 mmHg 63%
16:00 +2°C° 0.1 mm 5 mps 736 mmHg 65%
17:00 +2°C° 0.1 mm 5 mps 736 mmHg 68%
18:00 +1°C° 0.1 mm 5 mps 736 mmHg 72%
19:00 0°C° 0.1 mm 5 mps 736 mmHg 75%
20:00 0°C° 0.3 mm 5 mps 736 mmHg 81%
21:00 -1°C° 0.3 mm 5 mps 736 mmHg 86%
22:00 -2°C° 0.3 mm 6 mps 736 mmHg 92%
23:00 -2°C° 0.1 mm 5 mps 736 mmHg 87%

Tomorrow, 22 October, Thursday

Time Temperature Precipitation Wind Pressure Humidity
00:00 -4°C° 0.1 mm 5 mps 736 mmHg 82%
01:00 -4°C° 0.1 mm 4 mps 736 mmHg 77%
02:00 -4°C° 0 mm 4 mps 737 mmHg 78%
03:00 -4°C° 0 mm 4 mps 737 mmHg 79%
04:00 -4°C° 0 mm 4 mps 737 mmHg 80%
05:00 -4°C° 0.1 mm 4 mps 737 mmHg 83%
06:00 -4°C° 0.1 mm 4 mps 738 mmHg 85%
07:00 -5°C° 0.1 mm 5 mps 738 mmHg 87%
08:00 -4°C° 0.1 mm 5 mps 738 mmHg 82%
09:00 -4°C° 0.1 mm 5 mps 738 mmHg 76%
10:00 -2°C° 0.1 mm 5 mps 739 mmHg 70%
11:00 -2°C° 0.1 mm 5 mps 739 mmHg 70%
12:00 -2°C° 0.1 mm 5 mps 739 mmHg 70%
13:00 -2°C° 0.1 mm 5 mps 739 mmHg 70%
14:00 -2°C° 0 mm 5 mps 739 mmHg 70%
15:00 -2°C° 0 mm 5 mps 739 mmHg 70%
16:00 -2°C° 0 mm 5 mps 740 mmHg 70%
17:00 -3°C° 0 mm 4 mps 740 mmHg 74%
18:00 -3°C° 0 mm 4 mps 740 mmHg 77%
19:00 -4°C° 0 mm 3 mps 740 mmHg 80%
20:00 -4°C° 0 mm 3 mps 740 mmHg 81%
21:00 -2°C° 0 mm 3 mps 740 mmHg 81%
22:00 -2°C° 0 mm 3 mps 740 mmHg 82%
23:00 -4°C° 0 mm 3 mps 740 mmHg 83%

Day after tomorrow, 23 October, Friday

Time Temperature Precipitation Wind Pressure Humidity
00:00 -3°C° 0 mm 2 mps 740 mmHg 83%
01:00 -3°C° 0 mm 2 mps 740 mmHg 84%
02:00 -3°C° 0 mm 2 mps 741 mmHg 85%
03:00 -3°C° 0 mm 2 mps 741 mmHg 87%
04:00 -3°C° 0 mm 2 mps 741 mmHg 88%
05:00 -4°C° 0 mm 2 mps 741 mmHg 89%
06:00 -4°C° 0 mm 2 mps 741 mmHg 90%
07:00 -2°C° 0 mm 1 mps 741 mmHg 91%
08:00 -3°C° 0 mm 2 mps 741 mmHg 84%
09:00 -2°C° 0 mm 2 mps 741 mmHg 78%
10:00 -1°C° 0 mm 2 mps 741 mmHg 71%
11:00 +1°C° 0 mm 2 mps 741 mmHg 67%
12:00 0°C° 0 mm 3 mps 741 mmHg 63%
13:00 +1°C° 0 mm 3 mps 741 mmHg 59%
14:00 +2°C° 0 mm 2 mps 741 mmHg 60%
15:00 +2°C° 0 mm 2 mps 741 mmHg 62%
16:00 +2°C° 0 mm 2 mps 741 mmHg 63%
17:00 +1°C° 0 mm 2 mps 741 mmHg 66%
18:00 +1°C° 0 mm 2 mps 741 mmHg 69%
19:00 -1°C° 0 mm 2 mps 741 mmHg 71%
20:00 -1°C° 0 mm 2 mps 741 mmHg 77%
21:00 -1°C° 0 mm 2 mps 740 mmHg 82%
22:00 -1°C° 0 mm 2 mps 740 mmHg 87%
23:00 -1°C° 0.3 mm 3 mps 740 mmHg 90%

24 October, Saturday

Time Temperature Precipitation Wind Pressure Humidity
00:00 -1°C° 0.3 mm 3 mps 739 mmHg 93%
01:00 0°C° 0.3 mm 3 mps 739 mmHg 96%
02:00 0°C° 0.3 mm 3 mps 738 mmHg 96%
03:00 +1°C° 0.3 mm 2 mps 738 mmHg 96%
04:00 +1°C° 0.3 mm 2 mps 738 mmHg 96%
05:00 +2°C° 0.1 mm 2 mps 737 mmHg 96%
06:00 +2°C° 0.1 mm 2 mps 737 mmHg 96%
07:00 +3°C° 0.1 mm 2 mps 736 mmHg 96%
08:00 +3°C° 0 mm 2 mps 736 mmHg 96%
09:00 +3°C° 0 mm 3 mps 735 mmHg 96%
10:00 +4°C° 0 mm 3 mps 735 mmHg 96%
11:00 +4°C° 0.1 mm 4 mps 734 mmHg 95%
12:00 +5°C° 0.1 mm 4 mps 734 mmHg 94%
13:00 +5°C° 0.1 mm 4 mps 733 mmHg 94%
14:00 +6°C° 1.3 mm 5 mps 733 mmHg 95%
15:00 +6°C° 1.3 mm 5 mps 732 mmHg 95%
16:00 +7°C° 1.3 mm 6 mps 731 mmHg 96%
17:00 +7°C° 1.7 mm 6 mps 731 mmHg 96%
18:00 +7°C° 1.7 mm 6 mps 731 mmHg 96%
19:00 +7°C° 1.7 mm 5 mps 731 mmHg 96%
20:00 +7°C° 0.1 mm 5 mps 732 mmHg 96%
21:00 +7°C° 0.1 mm 5 mps 732 mmHg 96%
22:00 +7°C° 0.1 mm 5 mps 733 mmHg 96%
23:00 +7°C° 0.1 mm 5 mps 733 mmHg 95%

25 October, Sunday

Time Temperature Precipitation Wind Pressure Humidity
00:00 +7°C° 0.1 mm 5 mps 734 mmHg 94%
01:00 +7°C° 0.1 mm 5 mps 734 mmHg 94%
02:00 +7°C° 0 mm 4 mps 734 mmHg 94%
03:00 +6°C° 0 mm 4 mps 735 mmHg 95%
04:00 +7°C° 0 mm 3 mps 735 mmHg 95%
05:00 +5°C° 0 mm 3 mps 735 mmHg 96%
06:00 +6°C° 0 mm 2 mps 736 mmHg 96%
07:00 +6°C° 0 mm 2 mps 736 mmHg 97%
08:00 +6°C° 0 mm 2 mps 737 mmHg 95%
09:00 +7°C° 0 mm 2 mps 737 mmHg 93%
10:00 +7°C° 0 mm 2 mps 737 mmHg 91%
11:00 +9°C° 0 mm 1 mps 738 mmHg 87%
12:00 +9°C° 0 mm 1 mps 738 mmHg 84%
13:00 +10°C° 0 mm 1 mps 738 mmHg 81%
14:00 +10°C° 0 mm 1 mps 738 mmHg 81%
15:00 +10°C° 0 mm 1 mps 738 mmHg 82%
16:00 +9°C° 0 mm 0 mps 738 mmHg 82%
17:00 +10°C° 0 mm 1 mps 739 mmHg 84%
18:00 +9°C° 0 mm 1 mps 739 mmHg 86%
19:00 +9°C° 0 mm 1 mps 739 mmHg 88%
20:00 +9°C° 0.5 mm 1 mps 739 mmHg 90%
21:00 +9°C° 0.5 mm 1 mps 739 mmHg 93%
22:00 +9°C° 0.5 mm 1 mps 739 mmHg 95%
23:00 +8°C° 0.2 mm 2 mps 739 mmHg 95%

26 October, Monday

Time Temperature Precipitation Wind Pressure Humidity
00:00 +8°C° 0.2 mm 2 mps 738 mmHg 94%
01:00 +8°C° 0.2 mm 3 mps 738 mmHg 94%
02:00 +8°C° 0 mm 3 mps 738 mmHg 94%
03:00 +8°C° 0 mm 3 mps 738 mmHg 93%
04:00 +8°C° 0 mm 3 mps 737 mmHg 93%
05:00 +9°C° 0 mm 2 mps 737 mmHg 94%
06:00 +9°C° 0 mm 2 mps 737 mmHg 95%
07:00 +9°C° 0 mm 2 mps 737 mmHg 95%
08:00 +9°C° 0 mm 2 mps 737 mmHg 92%
09:00 +10°C° 0 mm 2 mps 737 mmHg 88%
10:00 +12°C° 0 mm 2 mps 737 mmHg 85%
11:00 +12°C° 0 mm 3 mps 737 mmHg 82%
12:00 +12°C° 0 mm 3 mps 737 mmHg 79%
13:00 +13°C° 0 mm 4 mps 737 mmHg 76%
14:00 +12°C° 0 mm 3 mps 737 mmHg 79%
15:00 +12°C° 0 mm 3 mps 737 mmHg 82%
16:00 +12°C° 0 mm 3 mps 737 mmHg 84%
17:00 +12°C° 0 mm 2 mps 737 mmHg 87%
18:00 +12°C° 0 mm 2 mps 737 mmHg 90%
19:00 +10°C° 0 mm 2 mps 737 mmHg 92%
20:00 +10°C° 0 mm 2 mps 737 mmHg 88%
21:00 +10°C° 0 mm 2 mps 737 mmHg 84%
22:00 +9°C° 0 mm 2 mps 737 mmHg 80%
23:00 +9°C° 0 mm 2 mps 737 mmHg 76%

27 October, Tuesday

Time Temperature Precipitation Wind Pressure Humidity
00:00 +9°C° 0 mm 2 mps 737 mmHg 73%
01:00 +9°C° 0 mm 2 mps 737 mmHg 69%
02:00 +9°C° 0 mm 2 mps 737 mmHg 68%
03:00 +10°C° 0 mm 1 mps 737 mmHg 67%
04:00 +10°C° 0 mm 1 mps 737 mmHg 67%
05:00 +10°C° 0 mm 1 mps 737 mmHg 69%
06:00 +10°C° 0 mm 1 mps 737 mmHg 71%
07:00 +9°C° 0 mm 1 mps 737 mmHg 74%
08:00 +10°C° 0 mm 1 mps 737 mmHg 70%
09:00 +11°C° 0 mm 1 mps 738 mmHg 66%
10:00 +12°C° 0 mm 1 mps 738 mmHg 61%
11:00 +12°C° 0 mm 0 mps 738 mmHg 58%
12:00 +12°C° 0 mm 0 mps 738 mmHg 54%
13:00 +13°C° 0 mm 0 mps 739 mmHg 50%
14:00 +13°C° 0 mm 0 mps 739 mmHg 54%
15:00 +12°C° 0 mm 0 mps 739 mmHg 58%
16:00 +13°C° 0 mm 1 mps 739 mmHg 62%
17:00 +11°C° 0 mm 1 mps 740 mmHg 69%
18:00 +10°C° 0 mm 1 mps 740 mmHg 76%
19:00 +8°C° 0 mm 2 mps 740 mmHg 82%
20:00 +8°C° 0 mm 2 mps 741 mmHg 85%
21:00 +8°C° 0 mm 2 mps 741 mmHg 87%
22:00 +7°C° 0 mm 2 mps 741 mmHg 90%
23:00 +7°C° 0 mm 2 mps 742 mmHg 91%
Show more